This is the latest recevied weather packets stored in our database for station/object AB4CZ-1. If no packets are shown the sender has not sent any weather packets the latest 10 day(s).
| Time | Temp. | Humidity | Pressure | Rain* | Wind** | Luminosity | Snow |
|---|---|---|---|---|---|---|---|
| 1778020640 | 25.56° C | 42% | 1013.6 hPa | 0 mm | - | - | - |
| 1778020609 | 25.56° C | 42% | 1013.6 hPa | 0 mm | - | - | - |
| 1778020293 | 25.56° C | 41% | 1013.6 hPa | 0 mm | - | - | - |
| 1778020000 | 25.56° C | 43% | 1013.6 hPa | 0 mm | - | - | - |
| 1778019800 | 25.56° C | 42% | 1013.6 hPa | 0 mm | - | - | - |
| 1778019698 | 25.56° C | 42% | 1013.6 hPa | 0 mm | - | - | - |
| 1778019092 | 25.56° C | 41% | 1013.4 hPa | 0 mm | - | - | - |
| 1778018792 | 25.56° C | 40% | 1013.3 hPa | 0 mm | - | - | - |
| 1778017646 | 26.11° C | 39% | 1013.4 hPa | 0 mm | - | - | - |
| 1778017611 | 26.11° C | 39% | 1013.4 hPa | 0 mm | - | - | - |
| 1778017292 | 26.11° C | 40% | 1013.7 hPa | 0 mm | - | - | - |
| 1778015193 | 26.11° C | 37% | 1013.9 hPa | 0 mm | - | - | - |
| 1778014676 | 26.11° C | 37% | 1014 hPa | 0 mm | - | - | - |
| 1778014594 | 26.11° C | 37% | 1014 hPa | 0 mm | - | - | - |
| 1778014294 | 26.11° C | 38% | 1014 hPa | 0 mm | - | - | - |
| 1778013693 | 26.67° C | 40% | 1014 hPa | 0 mm | - | - | - |
| 1778013529 | 26.67° C | 36% | 1014.1 hPa | 0 mm | - | - | - |
| 1778013393 | 26.67° C | 36% | 1014.1 hPa | 0 mm | - | - | - |
| 1778013092 | 26.67° C | 38% | 1014.1 hPa | 0 mm | - | - | - |
| 1778010693 | 26.67° C | 40% | 1014.8 hPa | 0 mm | - | - | - |
| 1778010396 | 27.22° C | 37% | 1014.9 hPa | 0 mm | - | - | - |
| 1778010092 | 27.22° C | 40% | 1014.9 hPa | 0 mm | - | - | - |
| 1778009493 | 26.67° C | 39% | 1014.9 hPa | 0 mm | - | - | - |
| 1778009194 | 26.67° C | 41% | 1014.8 hPa | 0 mm | - | - | - |
| 1778008592 | 26.67° C | 42% | 1014.9 hPa | 0 mm | - | - | - |
* Rain latest hour (hover to see other rain measurements)
** Current wind speed in m/s (hover to see current wind gust speed)